Torna al catalogo

STARLINK-6259

AttivoComunicazioniVLEO
NORAD 57089·PAYLOAD·🇺🇸 United States

Lanciato Jun 22, 2023 da Vandenberg Space Force Base

Loading…

Prossimi Passaggi (prossime 24 ore)

TLE

AggiornatoSource: CelesTrak SupGP

Epoca: Sep 14, 2026, 13:45 UTC

1 57089C 23088AT  26257.57340278  .00019268  00000+0  69813-3 0  2570
2 57089  42.9996 109.2958 0001488 257.6820 293.1868 15.27557464    19

Traccia STARLINK-6259 in tempo reale con AllMySat

Download on the App Store